Date String (YYYY-MM-DD hh:mm:ss) UTC,Instrument flags,Ambient pressure (hPa),Sample flow (lpm),Bypass flow (lpm),Sample temperature (°C),Ambient temperature (°C),ASC tube jacket temperature (°C),LED temperature (°C),Box temperature (°C),Sample RH (%),Span deviation,Mass concentration (μg/m³),Mass concentration (μg/m³),Mass concentration (μg/m³)
DateTimeUTC,F1_M11,P_M11,Q1_M11,Q2_M11,T1_M11,T2_M11,T3_M11,T4_M11,T5_M11,U1_M11,ZSPAN_M11,X0_M11,X2_M11,X1_M11
2023-02-09 14:00:00,,0831.1,4.99,0.00,22.7,22.1,00.0,31.4,24.6,06.9,0000.0,0003.79,0001.10,0000.44
2023-02-09 14:01:00,,0831.0,5.00,0.00,22.7,21.8,00.0,31.5,24.5,06.8,0000.0,0004.46,0001.13,0000.44
2023-02-09 14:02:00,,0831.0,5.01,0.00,22.7,21.6,00.0,31.5,24.5,06.8,0000.0,0005.32,0001.11,0000.45
2023-02-09 14:03:00,,0831.1,5.00,0.00,22.7,21.4,00.0,31.5,24.5,06.8,0000.0,0005.87,0001.11,0000.46
2023-02-09 14:04:00,,0831.1,5.00,0.00,22.7,21.3,00.0,31.5,24.4,06.8,0000.0,0005.98,0001.08,0000.46
2023-02-09 14:05:00,,0831.0,5.01,0.00,22.7,21.2,00.0,31.5,24.4,06.7,0000.0,0006.63,0001.11,0000.47
2023-02-09 14:06:00,,0831.0,5.02,0.00,22.6,21.2,00.0,31.5,24.3,06.7,0000.0,0007.94,0001.21,0000.48
2023-02-09 14:07:00,,0831.0,5.01,0.00,22.6,21.1,00.0,31.5,24.3,06.6,0000.0,0008.11,0001.23,0000.50
2023-02-09 14:08:00,,0831.2,4.99,0.00,22.6,21.1,00.0,31.5,24.3,06.7,0000.0,0008.32,0001.25,0000.50
2023-02-09 14:09:00,,0831.2,4.99,0.00,22.6,21.0,00.0,31.5,24.3,06.6,0000.0,0009.83,0001.31,0000.50
2023-02-09 14:10:00,,0831.2,5.02,0.00,22.6,20.9,00.0,31.5,24.3,06.6,0000.0,0012.17,0001.42,0000.51
2023-02-09 14:11:00,,0831.2,5.02,0.00,22.5,20.8,00.0,31.4,24.2,06.4,0000.0,0015.92,0001.69,0000.54
2023-02-09 14:12:00,,0831.2,5.02,0.00,22.5,20.7,00.0,31.4,24.2,06.1,0000.0,0018.06,0001.94,0000.57
2023-02-09 14:13:00,,0831.2,5.00,0.00,22.5,20.7,00.0,31.4,24.2,06.2,0000.0,0018.17,0002.12,0000.59
2023-02-09 14:14:00,,0831.2,5.02,0.00,22.4,20.7,00.0,31.4,24.1,06.2,0000.0,0018.02,0002.28,0000.61
2023-02-09 14:15:00,,0831.2,5.01,0.00,22.4,20.7,00.0,31.4,24.1,06.3,0000.0,0018.41,0002.35,0000.62
2023-02-09 14:16:00,,0831.3,5.03,0.00,22.5,21.4,00.0,31.3,24.3,06.4,0000.0,0018.17,0002.42,0000.62
2023-02-09 14:17:00,,0831.4,4.98,0.00,22.6,22.4,00.0,31.3,24.5,06.4,0000.0,0017.50,0002.40,0000.63
2023-02-09 14:18:00,,0831.4,5.03,0.00,22.7,23.0,00.0,31.3,24.7,06.3,0000.0,0017.56,0002.42,0000.61
2023-02-09 14:19:00,,0831.4,4.99,0.00,22.7,22.7,00.0,31.4,24.7,06.3,0000.0,0018.40,0002.49,0000.60
2023-02-09 14:20:00,,0831.4,4.99,0.00,22.7,22.3,00.0,31.4,24.6,06.4,0000.0,0016.98,0002.41,0000.60
2023-02-09 14:21:00,,0831.3,5.01,0.00,22.7,21.9,00.0,31.4,24.5,06.4,0000.0,0014.52,0002.29,0000.60
2023-02-09 14:22:00,,0831.4,5.00,0.00,22.7,21.6,00.0,31.5,24.5,06.4,0000.0,0010.98,0002.05,0000.58
2023-02-09 14:23:00,,0831.4,5.01,0.00,22.7,21.3,00.0,31.5,24.4,06.6,0000.0,0008.54,0001.81,0000.55
2023-02-09 14:24:00,,0831.4,4.99,0.00,22.6,21.1,00.0,31.5,24.3,06.5,0000.0,0008.23,0001.69,0000.53
2023-02-09 14:25:00,,0831.5,5.02,0.00,22.6,20.9,00.0,31.5,24.3,06.2,0000.0,0007.33,0001.50,0000.51
2023-02-09 14:26:00,,0831.4,4.98,0.00,22.6,20.8,00.0,31.4,24.2,06.4,0000.0,0006.52,0001.44,0000.50
2023-02-09 14:27:00,,0831.3,4.98,0.00,22.5,20.7,00.0,31.4,24.2,06.4,0000.0,0006.15,0001.41,0000.49
2023-02-09 14:28:00,,0831.4,5.03,0.00,22.5,20.6,00.0,31.4,24.1,06.2,0000.0,0006.33,0001.32,0000.47
2023-02-09 14:29:00,,0831.4,4.97,0.00,22.4,20.4,00.0,31.4,24.0,06.5,0000.0,0005.47,0001.18,0000.46
2023-02-09 14:30:00,,0831.4,5.05,0.00,22.4,20.3,00.0,31.4,24.0,06.5,0000.0,0004.09,0001.05,0000.45
2023-02-09 14:31:00,,0831.5,4.97,0.00,22.3,20.2,00.0,31.3,23.9,06.5,0000.0,0003.63,0000.98,0000.43
2023-02-09 14:32:00,,0831.6,4.99,0.00,22.3,20.1,00.0,31.3,23.9,06.7,0000.0,0003.46,0000.93,0000.41
2023-02-09 14:33:00,,0831.6,5.05,0.00,22.3,20.3,00.0,31.3,23.9,06.8,0000.0,0003.32,0000.88,0000.40
2023-02-09 14:34:00,,0831.6,4.96,0.00,22.3,21.4,00.0,31.2,24.1,06.8,0000.0,0003.15,0000.82,0000.38
2023-02-09 14:35:00,,0831.6,5.03,0.00,22.4,22.6,00.0,31.2,24.4,06.8,0000.0,0004.25,0000.74,0000.37
2023-02-09 14:36:00,,0831.6,4.99,0.00,22.5,22.7,00.0,31.2,24.5,06.8,0000.0,0004.16,0000.69,0000.36
2023-02-09 14:37:00,,0831.6,5.00,0.00,22.5,22.1,00.0,31.3,24.3,06.9,0000.0,0003.99,0000.63,0000.36
2023-02-09 14:38:00,,0831.7,4.98,0.00,22.5,21.5,00.0,31.3,24.1,06.8,0000.0,0003.70,0000.53,0000.35
2023-02-09 14:39:00,,0831.7,5.04,0.00,22.4,21.0,00.0,31.3,24.0,07.0,0000.0,0003.28,0000.53,0000.34
2023-02-09 14:40:00,,0831.7,4.98,0.00,22.4,20.7,00.0,31.3,23.9,07.0,0000.0,0002.88,0000.55,0000.35
2023-02-09 14:41:00,,0831.7,5.03,0.00,22.3,20.5,00.0,31.3,23.9,06.9,0000.0,0002.63,0000.56,0000.35
2023-02-09 14:42:00,,0831.7,4.98,0.00,22.3,20.4,00.0,31.2,23.8,06.9,0000.0,0002.49,0000.55,0000.35
2023-02-09 14:43:00,,0831.7,5.03,0.00,22.2,20.2,00.0,31.2,23.8,06.8,0000.0,0002.45,0000.55,0000.35
2023-02-09 14:44:00,,0831.7,4.97,0.00,22.2,20.1,00.0,31.2,23.7,06.7,0000.0,0002.48,0000.53,0000.35
2023-02-09 14:45:00,,0831.8,5.05,0.00,22.1,19.9,00.0,31.2,23.6,06.8,0000.0,0002.51,0000.54,0000.36
2023-02-09 14:46:00,,0831.7,4.96,0.00,22.1,19.8,00.0,31.1,23.6,06.8,0000.0,0001.21,0000.55,0000.36
2023-02-09 14:47:00,,0831.7,5.02,0.00,22.0,19.8,00.0,31.1,23.6,06.8,0000.0,0001.22,0000.56,0000.36
2023-02-09 14:48:00,,0831.7,4.98,0.00,22.0,20.7,00.0,31.0,23.8,06.9,0000.0,0001.26,0000.57,0000.37
2023-02-09 14:49:00,,0831.9,5.00,0.00,22.2,22.0,00.0,31.0,24.0,06.8,0000.0,0001.64,0000.58,0000.37
2023-02-09 14:50:00,,0832.0,5.01,0.00,22.3,22.7,00.0,31.0,24.3,06.9,0000.0,0001.66,0000.60,0000.38
2023-02-09 14:51:00,,0831.9,4.98,0.00,22.3,22.4,00.0,31.1,24.3,07.1,0000.0,0002.10,0000.63,0000.38
2023-02-09 14:52:00,,0832.0,5.01,0.00,22.3,21.9,00.0,31.1,24.2,07.0,0000.0,0002.33,0000.66,0000.38
2023-02-09 14:53:00,,0832.0,5.01,0.00,22.3,21.5,00.0,31.1,24.1,06.9,0000.0,0002.42,0000.69,0000.39
2023-02-09 14:54:00,,0831.9,5.02,0.00,22.3,21.2,00.0,31.1,24.0,06.9,0000.0,0002.53,0000.71,0000.40
2023-02-09 14:55:00,,0831.9,5.01,0.00,22.3,20.9,00.0,31.1,24.0,06.9,0000.0,0002.71,0000.72,0000.41
2023-02-09 14:56:00,,0832.0,5.00,0.00,22.2,20.7,00.0,31.1,23.9,06.9,0000.0,0002.74,0000.73,0000.41
2023-02-09 14:57:00,,0832.0,4.97,0.00,22.2,20.5,00.0,31.1,23.8,06.9,0000.0,0002.74,0000.73,0000.41
2023-02-09 14:58:00,,0832.0,5.03,0.00,22.2,20.4,00.0,31.1,23.8,06.9,0000.0,0003.90,0000.75,0000.41
2023-02-09 14:59:00,,0832.1,4.98,0.00,22.1,20.3,00.0,31.1,23.8,06.8,0000.0,0003.87,0000.73,0000.40
